Miscellaneous Local Product
Issued by NWS Hastings, NE

Home | Current Version | Previous Version | Graphics & Text | Print | Product List | Glossary On
Versions: 1 2 3 4 5 6 7 8 9 10 11 12 13 14 15 16 17 18 19 20 21 22 23 24 25 26 27 28 29 30 31 32 33 34 35 36 37 38 39 40 41 42 43 44 45 46 47 48 49 50
000
AXUS43 KGID 181302
MISGRI

GID CWA HOURLY WEATHER ROUNDUP
NATIONAL WEATHER SERVICE HASTINGS NE
700 AM CST MON DEC 18 2017

NOTE: "FAIR" INDICATES FEW OR NO CLOUDS BELOW 12,000 FEET WITH NO
SIGNIFICANT WEATHER AND/OR OBSTRUCTIONS TO VISIBILITY.

...SOUTH CENTRAL NEBRASKA...

CITY           SKY/WX    TMP DP  RH WIND       PRES   REMARKS
GRAND ISLAND   CLEAR     29  24  82 W9        29.94S WCI  20
KEARNEY        CLOUDY    28  23  81 SW7       29.95S WCI  21
HASTINGS       CLOUDY    25  21  85 SW7       29.96R WCI  17
ORD            CLOUDY    28  21  75 SW3       29.90R
YORK           CLEAR     27  27 100 W9        29.94R WCI  17
AURORA         CLEAR     27  24  88 W10       29.93S WCI  17
LEXINGTON      CLEAR     21  17  86 NW5       29.95S WCI  14
HOLDREGE       CLEAR     25  23  91 W8        29.96S WCI  16
HEBRON         CLOUDY    28  26  89 SW8       29.99R WCI  20

...NEBRASKA PANHANDLE...

CITY           SKY/WX    TMP DP  RH WIND       PRES   REMARKS
CHADRON        CLOUDY    18  13  80 S5        29.85F WCI  11
ALLIANCE       CLOUDY    16  12  84 SW7       29.88S WCI   6
SCOTTSBLUFF    CLOUDY    22  14  71 E3        29.90S
SIDNEY         CLOUDY    17  14  88 W10       29.93S WCI   5

...WESTERN AND NORTH CENTRAL NEBRASKA...

CITY           SKY/WX    TMP DP  RH WIND       PRES   REMARKS
VALENTINE      CLOUDY    24  19  81 SW8       29.84F WCI  15
AINSWORTH      CLEAR     27  22  82 SW7       29.85S WCI  19
ONEILL         CLOUDY    28  25  89 SW5       29.87R WCI  23
BROKEN BOW     CLOUDY    28  19  69 W9        29.91R WCI  19
IMPERIAL       CLOUDY    19  16  88 W5        29.97R WCI  12
NORTH PLATTE   CLOUDY    19  16  88 NW5       29.94S WCI  12
MCCOOK         CLOUDY    22  19  89 W12       29.98S WCI  10

...EASTERN NEBRASKA...

CITY           SKY/WX    TMP DP  RH WIND       PRES   REMARKS
NORFOLK        CLOUDY    30  25  81 W9        29.87R WCI  22
SO SIOUX CITY  CLOUDY    21  20  96 E6        29.88R WCI  13
TEKAMAH        CLOUDY    21  19  92 SE7       29.90S WCI  12
COLUMBUS       CLOUDY    28  26  92 SW12      29.91S WCI  18
ALBION         CLOUDY    31  25  78 W6        29.89S WCI  25
OMAHA EPPLEY   CLEAR     26  21  81 SE8       29.94S WCI  18
OFFUTT AFB     CLEAR     23  21  92 CALM      29.94S
MILLARD        CLEAR     26  24  93 SE3       29.94S FOG
LINCOLN        CLEAR     31  27  85 SW9       29.96S WCI  23
NEBRASKA CITY  CLEAR     30  30 100 SW14      29.96S WCI  19
BEATRICE       CLEAR     30  28  93 SW8       29.97F WCI  22
FALLS CITY     CLEAR     31  28  89 S5        30.00S WCI  26

...NORTHERN KANSAS...

CITY           SKY/WX    TMP DP  RH WIND       PRES   REMARKS
GOODLAND       CLEAR     26  21  81 SW9       29.98S WCI  17
HILL CITY      CLEAR     25  22  88 W9        30.02R WCI  15
NORTON         SUNNY     19  14  79 SW8       29.99R WCI   9
PHILLIPSBURG   CLEAR     25  21  86 S6        30.02R WCI  18
SMITH CENTER   CLEAR     18  18 100 SW6       30.03R WCI   9
HAYS           CLOUDY    23  21  92 W9        30.04F WCI  13
RUSSELL        CLEAR     22  20  92 W10       30.03S WCI  11
CONCORDIA      CLOUDY    31  27  85 SW10      30.01R WCI  22
SALINA         CLOUDY    25  23  92 S5        30.07R WCI  19
TOPEKA         FOG       32  32 100 SW3       30.06R VSB 1/4



USA.gov is the U.S. government's official web portal to all federal, state and local government web resources and services.